TimeEST,TemperatureF,Dew PointF,Humidity,Sea Level PressureIn,VisibilityMPH,Wind Direction,Wind SpeedMPH,Gust SpeedMPH,PrecipitationIn,Events,Conditions,WindDirDegrees,DateUTC
12:53 AM,42.1,41.0,96,29.98,4.0,West,6.9,-,N/A,,Clear,260,2013-02-20 05:53:00
1:25 AM,41.0,39.2,93,30.00,2.5,WSW,5.8,-,N/A,,Clear,250,2013-02-20 06:25:00
1:37 AM,41.0,39.2,93,30.00,3.0,West,6.9,-,N/A,,Clear,260,2013-02-20 06:37:00
1:53 AM,39.9,39.9,100,30.00,3.0,West,5.8,-,N/A,,Clear,260,2013-02-20 06:53:00
2:53 AM,39.0,37.9,96,29.99,9.0,West,5.8,-,N/A,,Clear,270,2013-02-20 07:53:00
3:53 AM,36.0,34.0,93,30.00,10.0,West,5.8,-,N/A,,Clear,260,2013-02-20 08:53:00
4:53 AM,34.0,30.0,85,30.03,10.0,West,6.9,-,N/A,,Clear,260,2013-02-20 09:53:00
5:53 AM,32.0,28.9,88,30.05,10.0,West,4.6,-,N/A,,Clear,260,2013-02-20 10:53:00
6:53 AM,30.9,27.0,85,30.07,10.0,West,5.8,-,N/A,,Clear,270,2013-02-20 11:53:00
7:53 AM,32.0,28.9,88,30.09,10.0,SW,3.5,-,N/A,,Clear,230,2013-02-20 12:53:00
8:53 AM,39.9,28.0,63,30.09,10.0,NW,3.5,-,N/A,,Clear,320,2013-02-20 13:53:00
9:53 AM,45.0,23.0,42,30.09,10.0,Variable,3.5,-,N/A,,Clear,0,2013-02-20 14:53:00
10:53 AM,48.0,17.1,29,30.10,10.0,Variable,3.5,-,N/A,,Clear,0,2013-02-20 15:53:00
11:53 AM,50.0,14.0,24,30.08,10.0,Variable,3.5,-,N/A,,Clear,0,2013-02-20 16:53:00
12:53 PM,53.1,15.1,22,30.05,10.0,NW,9.2,-,N/A,,Clear,310,2013-02-20 17:53:00
1:53 PM,54.0,10.9,18,30.03,10.0,West,8.1,-,N/A,,Clear,260,2013-02-20 18:53:00
2:53 PM,54.0,10.0,17,30.01,10.0,West,10.4,-,N/A,,Clear,260,2013-02-20 19:53:00
3:53 PM,54.0,10.0,17,30.01,10.0,SW,9.2,-,N/A,,Clear,230,2013-02-20 20:53:00
4:53 PM,54.0,12.9,20,30.03,10.0,West,11.5,-,N/A,,Clear,270,2013-02-20 21:53:00
5:53 PM,52.0,17.1,25,30.04,10.0,West,3.5,-,N/A,,Clear,280,2013-02-20 22:53:00
6:53 PM,46.9,21.9,37,30.07,10.0,SW,4.6,-,N/A,,Clear,230,2013-02-20 23:53:00
8:53 PM,36.0,28.0,73,30.09,10.0,WSW,3.5,-,N/A,,Clear,240,2013-02-21 01:53:00
9:53 PM,37.9,27.0,65,30.10,10.0,Calm,Calm,-,N/A,,Clear,0,2013-02-21 02:53:00
11:53 PM,39.0,23.0,53,30.10,10.0,North,11.5,-,N/A,,Clear,10,2013-02-21 04:53:00